Tappahannock, VA

2:26 PM EDT on August 23, 2017 (GMT -0400)
Tappahannock

Weather History for KXSA - June, 2013

Change the Weather History Date:

Friday, June 28, 2013

  Actual Average (KOFP) Record (KOFP)
Temperature  
Mean Temperature 82 °F -  
Max Temperature 91 °F 86 °F 100 °F (1959)
Min Temperature 72 °F 63 °F 49 °F (1960)
Cooling Degree Days 16    
Growing Degree Days 32 (Base 50)    
Moisture  
Dew Point 70 °F    
Average Humidity 72    
Maximum Humidity 98    
Minimum Humidity 41    
Precipitation  
Precipitation 0.00 in - - ()
Sea Level Pressure  
Sea Level Pressure 29.59 in    
Wind  
Wind Speed 5 mph (SSW)    
Max Wind Speed 20 mph    
Max Gust Speed 32 mph    
Visibility 9 miles    
Events Thunderstorm    
Averages and records for this station are not official NWS values.
T = Trace of Precipitation, MM = Missing Value Source: NWS Daily Summary

Daily Weather History Graph

Daily Weather History Graph

Search for Another Location

Airport or City:

Trip Planner

Search our weather history database for the weather conditions in past years. The results will help you decide how hot, cold, wet, or windy it might be!

Date:

Astronomy

Jun. 28, 2013 Rise Set
Actual Time 5:47 AM EDT 8:33 PM EDT
Civil Twilight 5:16 AM EDT 9:05 PM EDT
Nautical Twilight 4:37 AM EDT 9:44 PM EDT
Astronomical Twilight 3:52 AM EDT 10:28 PM EDT
Moon No Moon Rise 11:46 AM EDT (6/28)
Length of Visible Light 15h 48m
Length of Day
14h 45m
Waning Gibbous, 66% of the Moon is Illuminated
Jun 28
Waning Gibbous
Jun 30
Last Quarter
Jul 8
New
Jul 15
First Quarter
Jul 22
Full

Hourly Weather History & Observations

Time (EDT) Temp. Heat Index Dew Point Humidity Pressure Visibility Wind Dir Wind Speed Gust Speed Precip Events Conditions
12:15 AM 73.8 °F - 72.3 °F 95% 29.67 in 10.0 mi SSW 5.8 mph - N/A   Clear
12:35 AM 73.9 °F - 72.1 °F 94% 29.67 in 10.0 mi South 6.9 mph - N/A   Clear
12:55 AM 73.4 °F - 72.0 °F 95% 29.66 in 10.0 mi SSW 4.6 mph - N/A   Clear
1:15 AM 73.6 °F - 72.0 °F 95% 29.66 in 10.0 mi SSW 5.8 mph - N/A   Clear
1:35 AM 73.8 °F - 72.1 °F 95% 29.65 in 10.0 mi SSW 5.8 mph - N/A   Clear
1:55 AM 73.6 °F - 72.1 °F 95% 29.64 in 10.0 mi SSW 4.6 mph - N/A   Clear
2:35 AM 72.9 °F - 71.6 °F 96% 29.62 in 10.0 mi SSW 3.5 mph - N/A   Clear
2:55 AM 72.9 °F - 71.8 °F 96% 29.62 in 10.0 mi SSE 4.6 mph - N/A   Clear
3:15 AM 72.5 °F - 71.6 °F 97% 29.62 in 7.0 mi Calm Calm - N/A   Clear
3:35 AM 72.1 °F - 71.2 °F 97% 29.62 in 7.0 mi Calm Calm - N/A   Clear
3:55 AM 72.0 °F - 71.2 °F 98% 29.62 in 7.0 mi Calm Calm - N/A   Clear
4:15 AM 72.5 °F - 71.6 °F 97% 29.62 in 7.0 mi South 3.5 mph - N/A   Clear
4:35 AM 72.3 °F - 71.4 °F 97% 29.62 in 7.0 mi South 4.6 mph - N/A   Clear
4:55 AM 72.1 °F - 71.2 °F 97% 29.62 in 7.0 mi South 3.5 mph - N/A   Clear
5:15 AM 72.5 °F - 71.6 °F 97% 29.62 in 7.0 mi SW 4.6 mph - N/A   Clear
5:35 AM 72.1 °F - 71.6 °F 98% 29.62 in 5.0 mi South 4.6 mph - N/A   Clear
5:55 AM 72.1 °F - 71.6 °F 98% 29.62 in 5.0 mi SSW 3.5 mph - N/A   Clear
6:15 AM 72.7 °F - 72.1 °F 98% 29.63 in 5.0 mi SSW 3.5 mph - N/A   Scattered Clouds
6:35 AM 73.4 °F - 72.5 °F 97% 29.63 in 7.0 mi SW 3.5 mph - N/A   Mostly Cloudy
6:55 AM 73.4 °F - 72.5 °F 97% 29.63 in 7.0 mi South 3.5 mph - N/A   Scattered Clouds
7:15 AM 73.9 °F - 72.7 °F 96% 29.63 in 7.0 mi SSW 4.6 mph - N/A   Clear
7:35 AM 74.8 °F - 73.0 °F 94% 29.63 in 7.0 mi SSW 5.8 mph - N/A   Clear
7:55 AM 75.9 °F - 73.2 °F 91% 29.63 in 10.0 mi SSW 4.6 mph - N/A   Clear
8:55 AM 79.3 °F - 72.0 °F 78% 29.61 in 10.0 mi SW 5.8 mph - N/A   Clear
9:15 AM 80.4 °F 84.4 °F 71.8 °F 75% 29.61 in 10.0 mi WSW 5.8 mph - N/A   Clear
9:35 AM 81.7 °F 85.8 °F 71.2 °F 70% 29.60 in 10.0 mi SW 3.5 mph - N/A   Clear
9:55 AM 82.9 °F 87.7 °F 71.2 °F 68% 29.61 in 10.0 mi WSW 4.6 mph - N/A   Clear
10:15 AM 83.8 °F 87.8 °F 69.4 °F 62% 29.60 in 10.0 mi WSW 5.8 mph - N/A   Clear
10:35 AM 85.1 °F 88.8 °F 68.9 °F 58% 29.61 in 10.0 mi WSW 6.9 mph - N/A   Clear
10:55 AM 86.5 °F 90.3 °F 68.7 °F 55% 29.62 in 10.0 mi West 6.9 mph - N/A   Clear
11:15 AM 86.9 °F 90.6 °F 68.5 °F 54% 29.62 in 10.0 mi WSW 5.8 mph - N/A   Clear
11:35 AM 88.5 °F 92.3 °F 68.4 °F 51% 29.62 in 10.0 mi SW 8.1 mph - N/A   Clear
11:55 AM 88.5 °F 91.9 °F 67.5 °F 50% 29.62 in 10.0 mi SW 9.2 mph - N/A   Clear
12:15 PM 89.4 °F 92.7 °F 67.6 °F 48% 29.62 in 10.0 mi SW 5.8 mph - N/A   Clear
12:35 PM 89.2 °F 92.8 °F 67.6 °F 49% 29.61 in 7.0 mi South 5.8 mph - N/A   Scattered Clouds
12:55 PM 90.1 °F 93.5 °F 67.3 °F 47% 29.60 in 10.0 mi SW 10.4 mph - N/A   Scattered Clouds
1:15 PM 90.1 °F 93.5 °F 67.5 °F 47% 29.60 in 7.0 mi SSW 8.1 mph - N/A   Clear
1:35 PM 90.7 °F 94.1 °F 67.5 °F 46% 29.59 in 10.0 mi South 6.9 mph - N/A   Clear
1:55 PM 90.5 °F 93.3 °F 66.6 °F 45% 29.59 in 10.0 mi SW 5.8 mph - N/A   Clear
2:15 PM 90.7 °F 92.1 °F 64.0 °F 41% 29.58 in 10.0 mi South 4.6 mph - N/A   Clear
2:35 PM 91.2 °F 94.6 °F 66.9 °F 45% 29.57 in 10.0 mi SW 8.1 mph - N/A   Clear
2:55 PM 91.8 °F 94.6 °F 66.4 °F 43% 29.55 in 10.0 mi SSW 10.4 mph - N/A   Scattered Clouds
3:15 PM 91.6 °F 94.8 °F 66.6 °F 44% 29.54 in 10.0 mi SSW 9.2 mph - N/A   Clear
3:35 PM 91.6 °F 95.2 °F 67.5 °F 45% 29.53 in 10.0 mi South 10.4 mph - N/A   Clear
3:55 PM 90.9 °F 93.5 °F 66.0 °F 44% 29.52 in 10.0 mi SSW 8.1 mph - N/A   Clear
4:15 PM 88.0 °F 91.0 °F 67.1 °F 50% 29.52 in 10.0 mi South 6.9 mph - N/A   Clear
4:35 PM 90.5 °F 94.2 °F 68.0 °F 47% 29.52 in 10.0 mi SSW 11.5 mph 18.4 mph N/A   Clear
4:55 PM 90.0 °F 93.6 °F 67.8 °F 48% 29.54 in 10.0 mi South 19.6 mph 32.2 mph N/A Thunderstorm Thunderstorm
5:15 PM 83.1 °F 85.9 °F 67.6 °F 59% 29.53 in 10.0 mi South 5.8 mph - N/A   Scattered Clouds
5:35 PM 82.6 °F 86.6 °F 70.0 °F 66% 29.53 in 10.0 mi South 5.8 mph 16.1 mph N/A   Mostly Cloudy
5:55 PM 80.6 °F 83.6 °F 69.3 °F 68% 29.52 in 10.0 mi SE 9.2 mph 16.1 mph N/A Thunderstorm Thunderstorm
6:15 PM 79.9 °F - 67.3 °F 65% 29.51 in 10.0 mi SSE 4.6 mph - N/A   Clear
6:35 PM 80.2 °F 83.0 °F 68.2 °F 67% 29.52 in 10.0 mi SE 5.8 mph - N/A   Clear
6:55 PM 80.4 °F 83.4 °F 69.1 °F 68% 29.53 in 10.0 mi SE 4.6 mph - N/A   Clear
7:15 PM 80.6 °F 83.9 °F 70.0 °F 70% 29.53 in 10.0 mi SE 5.8 mph - N/A   Clear
7:35 PM 80.6 °F 84.2 °F 70.7 °F 72% 29.53 in 10.0 mi SSE 3.5 mph - N/A   Clear
7:55 PM 80.1 °F 83.6 °F 71.2 °F 74% 29.53 in 10.0 mi Calm Calm - N/A   Clear
8:15 PM 79.5 °F - 72.1 °F 78% 29.52 in 10.0 mi South 3.5 mph - N/A   Clear
8:35 PM 78.8 °F - 72.7 °F 81% 29.53 in 10.0 mi South 4.6 mph - N/A   Clear
8:55 PM 79.0 °F - 71.8 °F 78% 29.53 in 10.0 mi South 4.6 mph - N/A   Clear
9:15 PM 79.2 °F - 70.7 °F 75% 29.55 in 10.0 mi SSW 4.6 mph - N/A   Clear
9:35 PM 79.3 °F - 69.3 °F 71% 29.57 in 10.0 mi NW 3.5 mph - N/A   Clear
9:55 PM 79.2 °F - 70.0 °F 73% 29.59 in 10.0 mi Calm Calm - N/A   Mostly Cloudy
10:15 PM 79.2 °F - 67.5 °F 67% 29.59 in 10.0 mi WSW 3.5 mph - N/A   Mostly Cloudy
10:35 PM 78.8 °F - 66.4 °F 66% 29.60 in 10.0 mi SSW 3.5 mph - N/A   Scattered Clouds
10:55 PM 78.3 °F - 66.4 °F 67% 29.60 in 10.0 mi Calm Calm - N/A   Mostly Cloudy
11:15 PM 77.4 °F - 66.7 °F 70% 29.59 in 10.0 mi Calm Calm - N/A   Scattered Clouds
11:35 PM 75.9 °F - 66.9 °F 74% 29.60 in 10.0 mi Calm Calm - N/A   Scattered Clouds
11:55 PM 76.3 °F - 67.1 °F 73% 29.60 in 10.0 mi SW 4.6 mph - N/A   Mostly Cloudy